Miscellaneous Local Product
Issued by NWS North Platte, NE

Home | Current Version | Previous Version | Graphics & Text | Print | Product List | Glossary On
Versions: 1 2 3 4 5 6 7 8 9 10 11 12 13 14 15 16 17 18 19 20 21 22 23 24 25 26 27 28 29 30 31 32 33 34 35 36 37 38 39 40 41 42 43 44 45 46 47 48 49 50
000
AXUS43 KLBF 031810
MISLBF


WESTERN AND NORTH CENTRAL NEBRASKA HOURLY WEATHER ROUNDUP
NATIONAL WEATHER SERVICE NORTH PLATTE NE
100 PM CDT SUN MAY 03 2015

***STATIONS NOT REPORTING VARIABLES SUCH AS SKY/WEATHER OR
PRESSURE ARE PROVIDED BY THE NEBRASKA DEPARTMENT OF
ROADS...RAWS...AND APRS NETWORKS...AND ARE NOT UNDER
NATIONAL WEATHER SERVICE QUALITY CONTROL***

...OBSERVATIONS IN AND NEAR THE EASTERN PANHANDLE OF NEBRASKA...

CITY           SKY/WX    TMP DP  RH WIND       PRES   REMARKS
PINE RIDGE     MOSUNNY   68  37  32 NE20G28   29.97R
CHADRON        MOSUNNY   66  40  38 NE21      29.98S
ALLIANCE       SUNNY     68  40  35 N20G32    29.95R
SIDNEY         SUNNY     71  42  35 N16G24    29.95R
WHITECLAY        N/A     66  37  35 NE13        N/A
CRESCENT LAKE    N/A     68  38  33 NE16G26     N/A
BIG SPRINGS      N/A     75  42  31 N7          N/A
$$

...OBSERVATIONS IN NORTH CENTRAL NEBRASKA...

CITY           SKY/WX    TMP DP  RH WIND       PRES   REMARKS
VALENTINE      SUNNY     71  38  29 NE28G35   29.89R
THEDFORD       SUNNY     72  44  35 N18G29    29.87R
AINSWORTH      MOSUNNY   72  42  34 N24G35    29.87R
O`NEILL        MOSUNNY   75  54  48 N21G29    29.79R
ORD            MOSUNNY   81  47  30 N9        29.75R
BROKEN BOW     SUNNY     85  47  26 W13G18    29.78R
BROWNLEE         N/A     70  40  33 N26         N/A
VALENTINE NWR    N/A     68  41  37 N16G28      N/A
SPRINGVIEW       N/A     70  46  41 NE21G35     N/A
HALSEY           N/A     73  43  33 NW12G21     N/A
BREWSTER         N/A     78  47  33 N18         N/A
ROSE             N/A     77  51  40 NE15        N/A
NEWPORT          N/A     75  50  40 E15         N/A
SARGENT          N/A     81  45  27 MISG        N/A
COMSTOCK         N/A     90  46  22 SW5         N/A
EWING            N/A     82  58  44 N5          N/A
$$

...OBSERVATIONS IN SOUTHWEST NEBRASKA AND FAR NORTHEAST COLORADO...

CITY           SKY/WX    TMP DP  RH WIND       PRES   REMARKS
WRAY           FAIR      81  37  21 NW13G21   29.89S
IMPERIAL       SUNNY     81  40  23 NW18G25   29.85S
OGALLALA       SUNNY     76  41  28 N18       29.88R
NORTH PLATTE   SUNNY     78  47  33 N15       29.82R
MCCOOK         SUNNY     85  45  24 W12G18    29.81F
LEXINGTON      SUNNY     82  47  28 SW6       29.78S
PAXTON           N/A     77  46  32 NW7         N/A
SUTHERLAND       N/A     80  41  24 NE12        N/A
GOTHENBURG       N/A     80  42  25 NW9         N/A
CALLAWAY         N/A     80  51  36 NW12        N/A
$$

...NORTH PLATTE AREA...

CITY           SKY/WX    TMP DP  RH WIND       PRES   REMARKS
AIRPORT        SUNNY     78  47  33 N15       29.82R
DOWNTOWN         N/A     79  46  30 N6G13       N/A
$$

...SOME WEATHER OBSERVATIONS FROM AROUND THE REGION...

CITY           SKY/WX    TMP DP  RH WIND       PRES   REMARKS
DENVER         PTSUNNY   73  37  27 E13       29.99S
LARAMIE        LGT RAIN  60  35  39 MISG      30.07S
CHEYENNE       PTSUNNY   68  31  25 N13       30.02F
SCOTTSBLUFF    SUNNY     70  38  31 NE12G22   29.97R
RAPID CITY     SUNNY     67  37  33 N15G23    30.01R
PIERRE         MOSUNNY   73  36  25 NE22G33   29.92R
WINNER         FAIR      72  36  26 NE30G36   29.89R
SIOUX FALLS    PTSUNNY   80  55  42 N6        29.78R
OMAHA          PTSUNNY   80  60  50 S12       29.75S
GRAND ISLAND   SUNNY     85  50  29 S7        29.75F
KANSAS CITY    MOSUNNY   81  59  47 S23G30    29.84F
WICHITA        MOSUNNY   80  56  43 S17       29.85S
HAYS           MOSUNNY   84  45  24 E8        29.81S
LIBERAL        SUNNY     81  46  30 SW5       29.90S
GOODLAND       SUNNY     80  37  21 VRB6      29.89S
$$



USA.gov is the U.S. government's official web portal to all federal, state and local government web resources and services.